Location: Bothwell
(42.3833°S, 147.0000°E)
Time: 00:11:18
(UTC+10:00)

KKS-1 - Visible Passes

Search period start: 01 October 2022 23:00
Search period end: 12 October 2022 00:00
Orbit: 635 x 647 km, 98.2° (Epoch: 30 September)

Date Brightness Start Highest point End Pass type
(mag) Time Alt. Az. Time Alt. Az. Time Alt. Az.
02 Oct ? 22:00:45 23° SSE 22:00:45 23° SSE 22:02:44 10° S visible
02 Oct ? 23:38:21 11° SW 23:38:21 11° SW 23:38:35 10° SW visible
03 Oct ? 22:24:47 26° S 22:24:47 26° S 22:26:49 10° S visible
04 Oct ? 21:11:14 13° SE 21:11:14 13° SE 21:12:26 10° SSE visible
04 Oct ? 22:48:51 24° SSW 22:48:51 24° SSW 22:50:41 10° SSW visible
05 Oct ? 21:35:17 19° SE 21:35:17 19° SE 21:37:19 10° SSE visible
05 Oct ? 23:12:53 19° SW 23:12:53 19° SW 23:14:19 10° SSW visible
06 Oct ? 21:59:19 26° SSE 21:59:19 26° SSE 22:01:41 10° S visible
06 Oct ? 23:36:56 13° SW 23:36:56 13° SW 23:37:37 10° SW visible
07 Oct ? 22:23:22 31° S 22:23:22 31° S 22:25:46 10° S visible
08 Oct ? 21:09:48 13° SE 21:09:48 13° SE 21:11:17 10° SSE visible
08 Oct ? 22:47:24 29° SSW 22:47:24 29° SSW 22:49:39 10° SSW visible
09 Oct ? 21:33:51 20° SE 21:33:51 20° SE 21:36:13 10° SSE visible
09 Oct ? 23:11:27 22° SW 23:11:27 22° SW 23:13:17 10° SSW visible
10 Oct ? 21:57:53 29° SSE 21:57:53 29° SSE 22:00:35 10° S visible
10 Oct ? 23:35:29 15° SW 23:35:29 15° SW 23:36:36 10° SW visible
11 Oct ? 22:21:55 36° S 22:21:55 36° S 22:24:41 10° S visible
